This is the latest recevied weather packets stored in our database for station/object PP5KJ-13. If no packets are shown the sender has not sent any weather packets the latest 1 day(s).
| Time | Temp. | Humidity | Pressure | Rain* | Wind** | Luminosity | Snow |
|---|---|---|---|---|---|---|---|
| 1778050749 | 21.67° C | 100% | 1018 hPa | 0 mm | 1.34 m/s, 320° | - | - |
| 1778050149 | 21.67° C | 100% | 1018 hPa | 0 mm | 1.34 m/s, 320° | - | - |
| 1778049549 | 21.67° C | 100% | 1019 hPa | 0 mm | 2.24 m/s, 320° | - | - |
| 1778048949 | 21.67° C | 100% | 1019 hPa | 0 mm | 2.24 m/s, 320° | - | - |
| 1778048349 | 21.67° C | 100% | 1019 hPa | 0 mm | 2.24 m/s, 320° | - | - |
| 1778047749 | 21.67° C | 100% | 1019 hPa | 0 mm | 2.24 m/s, 320° | - | - |
| 1778047149 | 21.67° C | 100% | 1019 hPa | 0 mm | 2.24 m/s, 320° | - | - |
| 1778043548 | 22.22° C | 100% | 1019 hPa | 0 mm | 3.13 m/s, 330° | - | - |
| 1778042348 | 22.78° C | 100% | 1019 hPa | 0 mm | 3.13 m/s, 330° | - | - |
| 1778039948 | 22.78° C | 100% | 1019 hPa | 0 mm | 2.68 m/s, 320° | - | - |
| 1778039348 | 22.78° C | 100% | 1019 hPa | 0 mm | 2.68 m/s, 320° | - | - |
| 1778038748 | 22.78° C | 100% | 1019 hPa | 0 mm | 2.68 m/s, 320° | - | - |
| 1778038148 | 22.78° C | 100% | 1019 hPa | 0 mm | 2.68 m/s, 320° | - | - |
| 1778037548 | 22.78° C | 100% | 1019 hPa | 0 mm | 2.68 m/s, 320° | - | - |
| 1778036948 | 22.78° C | 100% | 1019 hPa | 0 mm | 2.24 m/s, 330° | - | - |
| 1778036348 | 22.22° C | 100% | 1019 hPa | 0 mm | 2.24 m/s, 330° | - | - |
| 1778035148 | 23.33° C | 100% | 1019 hPa | 0 mm | 2.24 m/s, 330° | - | - |
| 1778034548 | 22.78° C | 100% | 1019 hPa | 0 mm | 2.24 m/s, 330° | - | - |
| 1778033948 | 23.33° C | 100% | 1019 hPa | 0 mm | 1.34 m/s, 320° | - | - |
| 1778033348 | 22.78° C | 100% | 1019 hPa | 0 mm | 1.34 m/s, 320° | - | - |
| 1778032748 | 23.33° C | 100% | 1019 hPa | 0 mm | 1.34 m/s, 320° | - | - |
| 1778032148 | 23.33° C | 100% | 1019 hPa | 0 mm | 1.34 m/s, 320° | - | - |
| 1778031548 | 23.33° C | 100% | 1019 hPa | 0 mm | 1.34 m/s, 320° | - | - |
| 1778030948 | 23.33° C | 100% | 1019 hPa | 0 mm | 1.34 m/s, 320° | - | - |
| 1778030348 | 23.33° C | 100% | 1019 hPa | 0 mm | 2.68 m/s, 320° | - | - |
* Rain latest hour (hover to see other rain measurements)
** Current wind speed in m/s (hover to see current wind gust speed)